Date_and_time,latitude,longitude,wind_speed,RelWindDirFrom,WindDirFrom,air_pressure,air_temperature,relative_humidity,Temp,platform_speed_wrt_ground,air_pressure_at_mean_sea_level,platform_orientation
2019-08-06 00:00,50.6304316666667,-96.9807883333333,4.9,6.7,56,982.92,23.3,58,23.13,0.0,1008.39,360.0
2019-08-06 00:10,50.6304283333333,-96.98077,6.2,7.9,59,982.89,22.8,59,23.10,0.0,1008.36,360.0
2019-08-06 00:20,50.6304266666667,-96.9807633333333,8.1,10.2,63,982.75,22.7,59,23.12,0.0,1008.21,360.0
2019-08-06 00:30,50.6304266666667,-96.9807616666667,7.7,9.6,48,982.73,22.9,58,23.13,0.0,1008.22,360.0
2019-08-06 00:40,50.63043,-96.9807633333333,9.0,10.4,51,982.71,22.9,57,23.06,0.0,1008.21,360.0
2019-08-06 00:50,50.63043,-96.9807616666667,9.7,11.5,59,982.73,22.9,57,23.09,0.0,1008.21,360.0
2019-08-06 01:00,50.6304466666667,-96.9807716666667,11.0,13.1,56,982.70,22.8,58,23.19,0.0,1008.18,360.0
2019-08-06 01:10,50.63042,-96.980765,10.7,14.1,64,982.72,22.8,56,23.17,0.0,1008.20,360.0
2019-08-06 01:20,50.630425,-96.9807683333333,8.3,10.2,58,982.76,22.7,56,23.14,0.0,1008.22,360.0
2019-08-06 01:30,50.6304433333333,-96.98076,9.2,11.1,55,982.80,22.5,56,23.11,0.0,1008.28,360.0
2019-08-06 01:40,50.6304366666667,-96.980765,8.8,10.3,55,982.82,22.4,56,23.10,0.0,1008.34,360.0
2019-08-06 01:50,50.6304366666667,-96.980765,8.3,10.3,59,982.91,22.4,55,23.07,0.0,1008.48,360.0
2019-08-06 02:00,50.6304383333333,-96.9807633333333,7.5,8.8,53,982.99,22.3,55,23.05,0.0,1008.58,360.0
2019-08-06 02:10,50.630435,-96.9807633333333,7.5,9.3,51,982.98,22.2,56,23.01,0.0,1008.58,360.0
2019-08-06 02:20,50.630435,-96.9807616666667,7.2,8.9,53,983.05,22.2,56,22.96,0.0,1008.63,360.0
2019-08-06 02:30,50.630435,-96.9807616666667,7.0,7.8,57,983.07,22.2,55,22.95,0.0,1008.66,360.0
2019-08-06 02:40,50.6304333333333,-96.9807533333333,7.0,8.8,56,983.06,22.2,56,22.99,0.0,1008.65,360.0
2019-08-06 02:50,50.6304366666667,-96.98077,6.7,8.2,58,983.12,22.2,55,22.99,0.0,1008.72,360.0
2019-08-06 03:00,50.6304283333333,-96.9807683333333,6.3,7.6,61,983.14,22.2,56,22.99,0.0,1008.74,107.7
2019-08-06 03:10,50.6304366666667,-96.980765,6.0,7.9,62,983.16,22.2,57,23.00,0.0,1008.76,107.7
2019-08-06 03:20,50.630435,-96.980765,5.7,7.2,58,983.13,22.2,56,23.03,0.0,1008.74,107.7
2019-08-06 03:30,50.6304333333333,-96.9807633333333,5.0,6.2,58,983.17,22.2,56,23.00,0.0,1008.79,107.7
2019-08-06 03:40,50.6304466666667,-96.9807516666667,5.1,6.1,67,983.21,22.2,54,23.05,0.0,1008.83,107.7
2019-08-06 03:50,50.6304366666667,-96.9807633333333,4.6,5.8,60,983.24,22.1,55,23.06,0.0,1008.86,107.7
2019-08-06 04:00,50.6304333333333,-96.9807633333333,4.9,6.1,58,983.31,22.1,55,23.05,0.0,1008.94,156.5
2019-08-06 04:10,50.6304333333333,-96.98076,5.3,6.9,54,983.37,22.1,58,23.05,0.0,1009.01,156.5
2019-08-06 04:20,50.6304416666667,-96.98077,5.4,6.8,60,983.27,22.1,57,23.05,0.0,1008.90,156.5
2019-08-06 04:30,50.6304366666667,-96.9807633333333,3.7,5.9,62,983.21,22.0,57,23.05,0.0,1008.84,156.5
2019-08-06 04:40,50.6304383333333,-96.9807616666667,2.6,4.5,78,983.17,21.5,62,23.04,0.0,1008.82,156.5
2019-08-06 04:50,50.6304366666667,-96.9807633333333,0.6,2.2,287,983.16,20.1,65,23.04,0.0,1008.88,156.5
2019-08-06 05:00,50.6304366666667,-96.9807633333333,0.6,1.8,198,983.13,19.6,68,23.04,0.0,1008.87,360.0
2019-08-06 05:10,50.6304366666667,-96.9807666666667,2.3,4.4,278,983.12,18.8,69,23.04,0.0,1008.89,360.0
2019-08-06 05:20,50.630435,-96.9807666666667,1.8,2.6,248,983.14,17.8,72,23.06,0.0,1008.96,360.0
2019-08-06 05:30,50.630435,-96.980765,2.3,3.2,251,983.04,17.8,72,23.05,0.0,1008.86,360.0
2019-08-06 05:40,50.630435,-96.980765,2.8,3.9,246,983.03,17.5,73,23.03,0.0,1008.86,360.0
2019-08-06 05:50,50.630435,-96.9807666666667,3.5,4.3,256,983.10,17.1,74,23.02,0.0,1008.95,360.0
2019-08-06 06:00,50.630435,-96.980765,3.8,5.0,237,983.06,16.6,77,23.03,0.0,1008.93,360.0
2019-08-06 06:10,50.630435,-96.9807666666667,3.1,4.5,250,982.98,16.5,77,23.05,0.0,1008.86,360.0
2019-08-06 06:20,50.6304516666667,-96.9807633333333,4.7,5.8,233,982.93,16.4,77,23.06,0.0,1008.81,360.0
2019-08-06 06:30,50.6304216666667,-96.9807816666667,4.7,6.0,233,982.94,16.5,76,23.06,0.0,1008.84,360.0
2019-08-06 06:40,50.63043,-96.980775,5.1,6.4,234,982.95,16.5,76,23.07,0.0,1008.91,360.0
2019-08-06 06:50,50.6304316666667,-96.98078,4.9,6.1,234,982.88,17.0,74,23.07,0.0,1008.84,360.0
2019-08-06 07:00,50.6304333333333,-96.9807466666667,4.7,6.4,230,982.77,17.0,75,23.07,0.0,1008.77,90.0
2019-08-06 07:10,50.6304366666667,-96.9807666666667,4.5,5.8,222,982.66,16.5,78,23.06,0.0,1008.72,90.0
2019-08-06 07:20,50.630465,-96.980815,5.2,7.3,217,982.61,16.7,78,23.05,0.0,1008.66,90.0
2019-08-06 07:30,50.6304483333333,-96.9807833333333,7.1,9.7,210,982.52,17.1,76,23.06,0.0,1008.56,90.0
2019-08-06 07:40,50.6304416666667,-96.98077,7.7,9.9,210,982.49,17.2,75,23.07,0.0,1008.54,90.0
2019-08-06 07:50,50.63044,-96.980765,8.1,10.1,212,982.41,17.2,74,23.07,0.0,1008.48,90.0
2019-08-06 08:00,50.6304383333333,-96.9807666666667,7.8,9.7,211,982.41,17.0,76,23.07,0.0,1008.50,360.0
2019-08-06 08:10,50.6304366666667,-96.98077,7.9,10.2,209,982.42,17.0,76,23.06,0.0,1008.51,360.0
2019-08-06 08:20,50.630435,-96.9807616666667,6.7,8.6,208,982.35,17.0,75,23.05,0.0,1008.44,360.0
2019-08-06 08:30,50.63044,-96.9807666666667,6.1,7.8,211,982.33,17.1,74,23.04,0.0,1008.42,360.0
2019-08-06 08:40,50.630445,-96.9808066666667,6.7,8.5,214,982.34,17.0,73,23.03,0.0,1008.40,360.0
2019-08-06 08:50,50.6304316666667,-96.98077,5.4,8.3,221,982.24,16.8,74,23.04,0.0,1008.31,360.0
2019-08-06 09:00,50.6304333333333,-96.9807716666667,5.0,6.9,221,982.10,16.6,74,23.05,0.0,1008.20,228.3
2019-08-06 09:10,50.63042,-96.9807683333333,5.3,6.9,222,982.03,16.6,73,23.04,0.0,1008.12,228.3
2019-08-06 09:20,50.6304216666667,-96.980775,5.4,7.1,224,981.95,16.5,72,23.02,0.0,1008.02,228.3
2019-08-06 09:30,50.6304266666667,-96.9807716666667,5.9,8.9,223,981.97,16.4,73,22.99,0.0,1008.05,228.3
2019-08-06 09:40,50.6304266666667,-96.9807733333333,6.0,7.9,223,981.93,16.4,73,22.96,0.0,1008.01,228.3
2019-08-06 09:50,50.6304633333333,-96.9807866666667,5.9,7.7,225,981.86,16.2,73,22.94,0.0,1007.94,228.3
2019-08-06 10:00,50.630425,-96.9807716666667,6.1,8.0,226,981.81,16.2,74,22.92,0.0,1007.90,253.2
2019-08-06 10:10,50.63043,-96.9807866666667,5.8,7.8,218,981.65,16.2,76,22.90,0.0,1007.74,253.2
2019-08-06 10:20,50.6304266666667,-96.9807733333333,6.7,8.5,212,981.44,16.0,76,22.87,0.0,1007.52,253.2
2019-08-06 10:30,50.63043,-96.980775,7.9,10.4,213,981.32,15.9,76,22.85,0.0,1007.40,253.2
2019-08-06 10:40,50.6304316666667,-96.9807733333333,8.8,11.1,213,981.29,16.2,74,22.84,0.0,1007.37,253.2
2019-08-06 10:50,50.6304316666667,-96.9807766666667,9.1,11.7,214,981.13,16.3,73,22.81,0.0,1007.22,253.2
2019-08-06 11:00,50.63043,-96.980775,9.8,13.6,215,981.14,16.5,70,22.80,0.0,1007.22,360.0
2019-08-06 11:10,50.63043,-96.9807766666667,10.0,13.6,213,981.13,16.6,69,22.79,0.0,1007.21,360.0
2019-08-06 11:20,50.63043,-96.980775,10.2,13.2,210,981.07,16.5,69,22.75,0.0,1007.15,360.0
2019-08-06 11:30,50.63043,-96.980775,10.9,14.6,210,981.03,16.3,69,22.71,0.0,1007.12,360.0
2019-08-06 11:40,50.63043,-96.980775,9.9,12.9,210,980.91,16.3,70,22.67,0.0,1007.01,360.0
2019-08-06 11:50,50.63043,-96.980775,10.0,13.3,209,980.74,16.3,70,22.64,0.0,1006.83,360.0
2019-08-06 12:00,50.6304533333333,-96.9807816666667,8.7,11.7,211,980.63,16.4,71,22.61,0.0,1006.72,327.9
2019-08-06 12:10,50.63043,-96.9807733333333,8.7,11.1,215,980.60,16.5,71,22.60,0.0,1006.69,327.9
2019-08-06 12:20,50.6304283333333,-96.9807766666667,7.7,9.8,215,980.59,16.6,71,22.60,0.0,1006.68,327.9
2019-08-06 12:30,50.6304283333333,-96.9807733333333,7.4,10.4,220,980.65,16.7,72,22.58,0.0,1006.72,327.9
2019-08-06 12:40,50.6304316666667,-96.98077,6.1,9.9,247,980.93,16.7,73,22.56,0.0,1007.00,327.9
2019-08-06 12:50,50.6304333333333,-96.9807683333333,6.3,8.9,242,980.94,16.8,74,22.54,0.0,1007.00,327.9
2019-08-06 13:00,50.6304333333333,-96.9807683333333,5.5,7.8,240,980.93,17.1,76,22.54,0.0,1006.97,48.3
2019-08-06 13:10,50.628115,-96.9733533333333,6.0,9.3,210,980.66,17.6,78,22.49,1.9,1006.68,48.3
2019-08-06 13:20,50.64299,-96.931895,3.4,6.2,134,980.45,18.2,79,22.49,10.9,1006.44,48.3
2019-08-06 13:30,50.6583533333333,-96.8898483333333,1.9,5.3,248,980.53,18.7,78,22.61,11.1,1006.50,48.3
2019-08-06 13:40,50.67381,-96.847875,6.1,8.9,252,980.43,19.8,72,22.78,11.1,1006.35,48.3
2019-08-06 13:50,50.6819183333333,-96.82953,13.5,18.7,245,980.11,20.5,75,22.90,5.1,1005.98,48.3
2019-08-06 14:00,50.688345,-96.8200283333333,17.2,20.8,250,980.04,19.8,76,22.98,3.2,1005.94,60.3
2019-08-06 14:10,50.6954666666667,-96.8126483333333,16.1,19.7,250,979.89,19.7,79,22.99,3.1,1005.79,60.3
2019-08-06 14:20,50.698395,-96.7998583333333,16.1,21.5,235,979.74,20.3,78,22.98,3.1,1005.61,60.3
2019-08-06 14:30,50.695555,-96.7907333333333,17.7,23.0,227,979.32,20.7,77,22.96,2.3,1005.15,60.3
2019-08-06 14:40,50.6956516666667,-96.7908233333333,18.0,22.5,224,978.89,20.6,75,22.98,0.0,1004.71,60.3
2019-08-06 14:50,50.6956883333333,-96.7908566666667,17.6,20.8,218,978.74,20.7,75,22.99,0.0,1004.54,60.3
2019-08-06 15:00,50.6995466666667,-96.7887766666667,17.3,23.8,231,978.84,20.8,74,22.98,1.5,1004.61,60.3
2019-08-06 15:10,50.7303166666667,-96.7851716666667,14.5,18.3,280,979.32,20.6,76,22.98,11.1,1005.09,60.3
2019-08-06 15:20,50.76081,-96.7793416666667,14.2,18.5,287,979.38,20.5,76,22.95,11.1,1005.13,60.3
2019-08-06 15:30,50.7914916666667,-96.7769066666667,14.5,18.4,289,979.28,20.7,74,22.90,11.1,1004.97,60.3
2019-08-06 15:40,50.8141716666667,-96.7732233333333,12.9,16.3,279,979.09,21.1,72,22.84,8.2,1004.73,60.3
2019-08-06 15:50,50.8220433333333,-96.7717516666667,12.9,16.4,258,978.81,21.4,71,22.81,2.9,1004.46,60.3
2019-08-06 16:00,50.8300766666667,-96.770985,14.7,18.5,255,978.64,21.8,67,22.80,2.9,1004.27,33.5
2019-08-06 16:10,50.8380816666667,-96.77114,15.4,18.4,254,978.69,21.7,68,22.79,2.9,1004.30,33.5
2019-08-06 16:20,50.8463466666667,-96.7688133333333,14.9,21.6,256,978.69,21.7,69,22.78,3.0,1004.28,33.5
2019-08-06 16:30,50.8463533333333,-96.76878,17.3,20.8,242,978.41,21.8,69,22.79,0.0,1003.99,33.5
2019-08-06 16:40,50.8464066666667,-96.7688116666667,16.9,20.3,243,978.32,21.8,68,22.78,0.0,1003.91,33.5
2019-08-06 16:50,50.8464333333333,-96.7688116666667,15.9,19.3,239,978.34,21.7,69,22.78,0.0,1003.92,33.5
2019-08-06 17:00,50.84643,-96.7688033333333,15.2,18.7,236,978.37,21.8,70,22.78,0.0,1003.95,11.6
2019-08-06 17:10,50.8464683333333,-96.7688366666667,14.3,17.9,236,978.45,22.1,70,22.78,0.0,1004.03,11.6
2019-08-06 17:20,50.8464566666667,-96.7687983333333,14.2,18.6,243,978.45,22.7,65,22.79,0.0,1003.99,11.6
2019-08-06 17:30,50.8464533333333,-96.76881,11.2,13.9,238,978.49,22.9,66,22.80,0.0,1004.00,11.6
2019-08-06 17:40,50.8463866666667,-96.7687533333333,12.5,15.5,242,978.24,23.2,63,22.81,0.0,1003.73,11.6
2019-08-06 17:50,50.861705,-96.78163,13.2,18.0,272,978.17,23.2,62,22.82,6.2,1003.64,11.6
2019-08-06 18:00,50.8891466666667,-96.8022433333333,16.0,19.1,298,977.85,23.2,61,22.80,10.9,1003.31,357.5
2019-08-06 18:10,50.9165433333333,-96.8232083333333,17.2,20.8,293,977.86,23.3,60,22.76,11.0,1003.32,357.5
2019-08-06 18:20,50.94355,-96.844385,19.1,23.2,297,977.52,23.5,58,22.73,10.8,1002.96,357.5
2019-08-06 18:30,50.9503916666667,-96.8505833333333,15.1,22.0,283,977.72,24.1,54,22.77,2.8,1003.14,357.5
2019-08-06 18:40,50.9562033333333,-96.8564883333333,17.7,20.8,286,977.51,24.2,55,22.75,2.5,1002.92,357.5
2019-08-06 18:50,50.9619883333333,-96.86264,14.9,20.9,280,977.72,24.1,56,22.72,2.5,1003.13,357.5
2019-08-06 19:00,50.9730166666667,-96.87296,15.5,20.4,282,977.63,24.3,54,22.68,4.6,1003.02,335.8
2019-08-06 19:10,50.9745216666667,-96.8742166666667,14.0,18.7,274,977.49,24.7,53,22.66,0.6,1002.84,335.8
2019-08-06 19:20,50.9744033333333,-96.87416,13.7,20.0,275,977.52,24.8,54,22.67,0.0,1002.85,335.8
2019-08-06 19:30,50.97443,-96.874165,12.5,17.3,285,977.47,24.9,53,22.69,0.0,1002.79,335.8
2019-08-06 19:40,50.9743133333333,-96.8742116666667,15.0,21.6,283,977.29,25.0,51,22.71,0.0,1002.60,335.8
2019-08-06 19:50,50.97431,-96.8742166666667,13.5,17.7,300,977.29,24.9,51,22.72,0.0,1002.60,335.8
2019-08-06 20:00,50.9743183333333,-96.8742033333333,15.1,20.0,296,977.27,24.6,54,22.71,0.0,1002.59,332.6
2019-08-06 20:10,50.9743033333333,-96.8742283333333,14.6,18.0,290,977.32,24.7,53,22.72,0.0,1002.62,332.6
2019-08-06 20:20,50.9701383333333,-96.8754416666667,13.3,20.0,289,977.40,24.5,57,22.73,1.5,1002.69,332.6
2019-08-06 20:30,50.9401733333333,-96.880425,19.5,28.3,261,977.40,24.4,56,22.71,10.8,1002.69,332.6
2019-08-06 20:40,50.90953,-96.88205,19.5,25.8,250,977.55,24.3,57,22.76,11.0,1002.85,332.6
2019-08-06 20:50,50.878785,-96.8840366666667,19.6,23.2,253,977.70,24.3,57,22.75,11.1,1002.99,332.6
2019-08-06 21:00,50.8481266666667,-96.8875716666667,20.8,24.4,264,977.84,24.3,57,22.77,11.1,1003.12,232.7
2019-08-06 21:10,50.8174066666667,-96.8898116666667,17.5,22.8,257,978.01,24.3,56,22.75,11.1,1003.30,232.7
2019-08-06 21:20,50.7874016666667,-96.898805,22.1,28.4,249,977.81,24.4,52,22.80,11.0,1003.08,232.7
2019-08-06 21:30,50.75741,-96.9099083333333,20.4,27.4,260,977.98,24.7,52,22.84,11.1,1003.24,232.7
2019-08-06 21:40,50.7273083333333,-96.9213266666667,17.9,27.3,280,978.15,24.9,53,22.87,11.1,1003.41,232.7
2019-08-06 21:50,50.6967833333333,-96.9323383333333,15.1,20.1,328,978.59,27.1,52,22.84,11.3,1003.78,232.7
2019-08-06 22:00,50.666155,-96.9430616666667,12.3,17.7,309,978.88,24.7,64,22.85,11.3,1004.17,188.2
2019-08-06 22:10,50.6354316666667,-96.9542,13.2,19.4,313,978.91,22.9,64,22.77,11.3,1004.29,188.2
2019-08-06 22:20,50.6295883333333,-96.981115,19.1,25.2,322,978.49,22.1,64,22.74,6.5,1003.90,188.2
2019-08-06 22:30,50.6304533333333,-96.9807783333333,13.1,21.4,343,978.73,22.0,64,22.91,0.3,1004.16,188.2
2019-08-06 22:40,50.6304516666667,-96.9807683333333,12.6,19.2,329,978.88,22.1,63,22.96,0.0,1004.31,188.2
2019-08-06 22:50,50.63045,-96.9807683333333,13.0,19.0,327,978.95,22.3,62,22.98,0.0,1004.36,188.2
2019-08-06 23:00,50.6304466666667,-96.9807666666667,11.2,18.0,341,979.11,22.4,62,23.00,0.0,1004.52,191.1
2019-08-06 23:10,50.6304466666667,-96.9807766666667,13.9,19.2,347,978.97,22.4,61,23.00,0.0,1004.38,191.1
2019-08-06 23:20,50.630445,-96.9807533333333,14.6,19.5,348,979.03,22.3,60,23.02,0.0,1004.43,191.1
2019-08-06 23:30,50.6304516666667,-96.98077,13.8,18.5,347,979.06,22.2,59,23.02,0.0,1004.46,191.1
